[[{"header":{"parameterUnit":"m.s-1","parameterCategory":1,"la1":30.2992,"la2":30.254,"lo1":-89.0895,"lo2":-89.0443,"dy":0.0025,"dx":0.0025,"nx":19,"ny":19,"refTime":"2026-04-02T21:00:00:Z","depth":0,"parameterNumber":2,"parameterNumberName":"U-component_of_WINDS"},"data":[0,0,0,-4.1055,-4.1056,-4.1074,-4.1074,-4.1109,-4.1109,0,0,0,0,0,0,0,0,0,0,0,-4.1056,-4.1056,-4.1055,-4.1056,-4.1074,-4.1074,-4.1109,-4.1109,0,0,0,0,0,0,0,0,0,0,0,-4.1056,-4.1056,-4.1057,-4.1056,-4.1074,-4.1074,-4.1108,-4.1091,0,0,0,0,0,0,0,0,0,0,-4.1072,-4.1077,-4.1056,-4.1057,-4.1056,-4.1074,-4.1074,-4.109,-4.1092,-4.1106,0,-4.1117,0,-4.1114,-4.1112,-4.1112,0,0,0,-4.1052,-4.1075,-4.1075,-4.1057,-4.1056,-4.1074,-4.1065,-4.1091,-4.1094,-4.1108,-4.1117,-4.1118,-4.1114,-4.1112,-4.1113,-4.12,-4.12,0,0,-4.1051,-4.1062,-4.1074,-4.1077,-4.1073,-4.1064,-4.1065,-4.1092,-4.1103,-4.1118,-4.1119,-4.1115,-4.1113,-4.1113,-4.1199,-4.12,0,0,0,-4.1051,-4.1061,-4.106,-4.1076,-4.1078,-4.1065,-4.1066,-4.1102,-4.1101,-4.1119,-4.1115,-4.1113,-4.1113,-4.1198,-4.1199,-4.1237,0,0,0,-4.105,-4.1061,-4.106,-4.1067,-4.1078,-4.109,-4.1075,-4.1099,-4.1102,-4.1115,-4.1113,-4.1114,-4.1198,-4.1199,-4.1235,-4.1252,0,0,0,-4.1053,-4.1061,-4.1066,-4.1067,-4.1075,-4.1089,-4.1089,-4.1099,-4.11,-4.1112,-4.1114,-4.1197,-4.1199,-4.1232,-4.1249,-4.1278,0,0,0,-4.1059,-4.1099,-4.1067,-4.1111,-4.1075,-4.1113,-4.1089,-4.1117,-4.1132,-4.1113,-4.1198,-4.1199,-4.1232,-4.1246,-4.1276,-4.1302,-4.1315,0,0,-4.1116,-4.1106,-4.1132,-4.1103,-4.1149,-4.111,-4.1162,-4.1166,-4.1159,-4.1187,-4.1189,-4.1236,-4.1248,-4.1277,-4.1387,-4.1397,0,0,0,-4.1154,-4.1172,-4.1182,-4.1197,-4.1202,-4.1208,-4.1204,-4.1206,-4.123,-4.1175,-4.1255,-4.1262,-4.1279,-4.1291,-4.13,-4.1313,-4.1206,-4.1206,-4.1206,-4.1247,-4.1236,-4.1278,-4.127,-4.1286,-4.1282,-4.1295,-4.1298,-4.1281,-4.1301,-4.1308,-4.1376,-4.1391,-4.1397,-4.1411,-4.1324,-4.1324,-4.1324,-4.1324,-4.1328,-4.1352,-4.1332,-4.1365,-4.1354,-4.1383,-4.1384,-4.1372,-4.1398,-4.1369,-4.1383,-4.1349,-4.1408,-4.142,-4.1327,-4.1326,-4.1326,-4.1326,-4.1325,-4.1385,-4.1395,-4.1398,-4.1421,-4.1442,-4.1434,-4.146,-4.145,-4.1441,-4.1456,-4.1462,-4.1461,-4.1458,-4.146,-4.146,-4.1461,-4.1461,-4.1461,-4.1461,-4.1442,-4.1445,-4.1467,-4.148,-4.149,-4.1502,-4.1504,-4.1514,-4.1523,-4.1514,-4.1514,-4.1496,-4.1417,-4.1396,-4.1465,-4.1464,-4.1464,-4.1463,-4.1463,-4.1523,-4.1504,-4.1539,-4.155,-4.1565,-4.1586,-4.1575,-4.1598,-4.1606,-4.162,-4.1602,-4.1545,-4.1535,-4.1528,-4.151,-4.1604,-4.1604,-4.1604,-4.1604,-4.157,-4.1565,-4.1599,-4.1617,-4.1634,-4.1629,-4.1672,-4.1676,-4.1676,-4.1681,-4.1668,-4.1645,-4.1638,-4.1631,-4.1622,-4.1605,-4.1722,-4.1722,-4.1722,-4.1619,-4.1616,-4.1652,-4.1652,-4.1665,-4.1676,-4.1716,-4.174,-4.1738,-4.1726,-4.1685,-4.168,-4.1643,-4.1632,-4.1614,-4.16,-4.1569,0,0]},{"header":{"parameterUnit":"m.s-1","parameterCategory":1,"la1":30.2992,"la2":30.254,"lo1":-89.0895,"lo2":-89.0443,"dy":0.0025,"dx":0.0025,"nx":19,"ny":19,"refTime":"2026-04-02T21:00:00:Z","depth":0,"parameterNumber":3,"parameterNumberName":"V-component_of_WINDS"},"data":[0,0,0,3.4652,3.4652,3.4659,3.4659,3.4642,3.4642,0,0,0,0,0,0,0,0,0,0,0,3.4635,3.4634,3.4652,3.4652,3.4659,3.4659,3.4642,3.4642,0,0,0,0,0,0,0,0,0,0,0,3.4635,3.4635,3.4634,3.4652,3.4659,3.4659,3.4642,3.4646,0,0,0,0,0,0,0,0,0,0,3.4643,3.4613,3.4635,3.4634,3.4652,3.4659,3.4659,3.4647,3.4646,3.4628,0,3.4609,0,3.4625,3.4639,3.4639,0,0,0,3.4663,3.4614,3.463,3.4634,3.4652,3.4659,3.4659,3.4646,3.4645,3.4627,3.4609,3.4609,3.4625,3.4639,3.4639,3.4507,3.4506,0,0,3.4662,3.4628,3.463,3.4628,3.4627,3.4659,3.4659,3.4646,3.4624,3.4609,3.461,3.4625,3.4639,3.4638,3.4508,3.4506,0,0,0,3.4654,3.4627,3.4644,3.4628,3.4632,3.4659,3.4659,3.4625,3.4633,3.461,3.4625,3.4638,3.4638,3.4509,3.4507,3.442,0,0,0,3.4654,3.4622,3.4643,3.4622,3.4631,3.4628,3.4637,3.4634,3.4634,3.4625,3.4638,3.4638,3.451,3.4508,3.4426,3.4385,0,0,0,3.464,3.4621,3.4617,3.462,3.4622,3.463,3.4638,3.4635,3.4643,3.4639,3.4637,3.4511,3.4509,3.443,3.4392,3.4341,0,0,0,3.4613,3.4537,3.4615,3.4535,3.4622,3.4576,3.4638,3.4605,3.4592,3.4638,3.451,3.4507,3.4432,3.4397,3.4346,3.4293,3.4267,0,0,3.4497,3.4521,3.4478,3.4548,3.448,3.4578,3.4497,3.4516,3.4546,3.4518,3.4515,3.4424,3.4393,3.4342,3.4136,3.4115,0,0,0,3.4429,3.4397,3.4387,3.4374,3.4389,3.4398,3.4434,3.4442,3.442,3.4525,3.4393,3.4375,3.4347,3.4323,3.4306,3.4284,3.4495,3.4495,3.4495,3.4214,3.426,3.4191,3.4238,3.4225,3.4264,3.4258,3.4275,3.4321,3.429,3.4281,3.4151,3.4122,3.4109,3.4086,3.4257,3.4256,3.4256,3.4256,3.4049,3.4012,3.408,3.4038,3.4087,3.4051,3.4087,3.4122,3.4096,3.416,3.4137,3.4203,3.4085,3.4068,3.425,3.4251,3.4252,3.4252,3.4253,3.3914,3.3904,3.3917,3.3906,3.3891,3.3941,3.3915,3.3959,3.4,3.3978,3.3975,3.3977,3.3985,3.3974,3.3973,3.3973,3.3972,3.3972,3.3972,3.3768,3.3786,3.3759,3.3771,3.377,3.3775,3.3816,3.3816,3.3827,3.3862,3.3862,3.3913,3.4065,3.4103,3.3965,3.3966,3.3967,3.3968,3.3968,3.3585,3.3634,3.3592,3.3592,3.3611,3.3595,3.3654,3.3651,3.3657,3.3643,3.37,3.3805,3.3832,3.3846,3.3878,3.369,3.369,3.369,3.369,3.3471,3.349,3.3459,3.3456,3.3458,3.3508,3.3459,3.3491,3.3531,3.3539,3.3573,3.3618,3.3631,3.365,3.3669,3.3699,3.347,3.3469,3.3469,3.3361,3.3383,3.3334,3.3377,3.3396,3.3411,3.3368,3.3361,3.3417,3.3461,3.3546,3.3555,3.3629,3.3651,3.3696,3.3723,3.3779,0,0]}]]